Showing default

GLOBAL-14, 49469

Orbit data source: Space-Track

GLOBAL-14, 49469 is a payload satellite owned by BlackSky Global (US) in LEO that was launched on Thu, 18 Nov 2021 UTC via an ELECTRON launch vehicle from the Rocket Lab Launch Complex (RLLC). Payload-class satellites include a variety of spacecraft equipped with specific instruments for various scientific and technological missions. These include communications satellites like Starlink; space stations such as the ISS; scientific satellites like the Hubble; Earth observation satellites from companies like Planet Labs, Umbra, and HawkEye 360; GPS; miniature CubeSats for education and research; and military/defense satellites.

Loading next visibility...
Identifier
49469, 2021-106A
Orbit
LEO
Country
Flag of USUS
Related business
Manufacturer
LeoStella
Mission
Operational Commercial Imaging
Bus & Motor
BSKY, Unknown motor
Mass
55 kg wet, ~50 kg dry
Launch date (UTC)
2021-11-18 (5 years ago)
Launch vehicle
ELECTRON
Launch site
Rocket Lab Launch Complex (RLLC)
Object type
Payload
Rocket body
Debris
Shape & HBR
Box, 1.0 m
Radar Cross Section
0.625 m², Medium (>0.1 m² and < 1m²)

Expand to show TLE details & history
Last TLE update: 2 days ago

TLE from 2 days ago
0 GLOBAL-14
1 49469U 21106A   26171.30640088  .00022518  00000-0  38404-3 0  9998
2 49469  42.0033 272.5412 0015336  42.0082 318.1935 15.50728962258610
Epoch: 2026-06-20T07:21Z
TLE epoch observation values (Epoch: 2026-06-20T07:21:13.036Z)
Latitude
-0.00003°
Longitude
-106.28607°
Altitude
406.501 km
Speed
7.673 km/s
True Right ascension
18h 10m 09s
True Declination
0° 00' 00"
Sunlit
Object was in full shadow at epoch
Visualization orbit readout
Latitude
Unknown
Longitude
Unknown
Altitude
Unknown
Speed
Unknown
Apparent Right ascension
Unknown
Apparent Declination
Unknown
Sunlit
N/A
Visualization observer readout
Local Sidereal Time
23:08:47
Azimuth
Unknown
Elevation
Unknown
Doppler factor
Unknown
Orbital elements
Apogee altitude
427.15 km
Perigee altitude
406.309 km
Semi-major axis
6,794.867 km
Eccentricity
0.00153
Inclination
42.0033°
RAAN
272.5412°
Arg. of periapsis
42.0082°
True anomaly
318.07618°
Mean anomaly
318.1935°
Eccentric anomaly
318.13486°
Mean motion
3.875 °/min
Orbital period
92.9 mins
BSTAR
0.00038404
Loading maneuver chart data...
Computing Atmospheric mass density...
Loading historical data...
Loading historical data...
Loading historical data...
Loading historical data...
Loading historical data...
Loading historical data...
Loading historical data...

Documentation

Showing up to 5 results
|